| time (UTC) | temp F | wind direction | speed MPH | gust MPH | rain 1hr in | rain 24hr in | rain mn in | humidity % | barometer mb |
| 20260502224101 | 60 | 319 | 0.0 | 0.0 | 0.00 | 0.00 | 0.00 | 68 | 1021.4 |
| 20260502223545 | 60 | 319 | 0.0 | 0.0 | 0.00 | 0.00 | 0.00 | 68 | 1021.4 |
| 20260502223035 | 60 | 319 | 0.0 | 0.0 | 0.00 | 0.00 | 0.00 | 69 | 1021.4 |
| 20260502222540 | 59 | 319 | 0.0 | 0.0 | 0.00 | 0.00 | 0.00 | 71 | 1021.4 |
| 20260502222055 | 59 | 319 | 0.0 | 0.0 | 0.00 | 0.00 | 0.00 | 71 | 1021.5 |
| 20260502221559 | 59 | 319 | 0.0 | 0.0 | 0.00 | 0.00 | 0.00 | 71 | 1021.5 |
| 20260502221031 | 59 | 319 | 0.0 | 0.0 | 0.00 | 0.00 | 0.00 | 71 | 1021.5 |
| 20260502220532 | 60 | 319 | 0.0 | 0.0 | 0.00 | 0.00 | 0.00 | 70 | 1021.5 |
| 20260502220046 | 60 | 319 | 0.0 | 0.0 | 0.00 | 0.00 | 0.00 | 69 | 1021.5 |
| 20260502215542 | 61 | 319 | 0.0 | 0.0 | 0.00 | 0.00 | 0.00 | 67 | 1021.5 |
| 20260502215040 | 61 | 319 | 0.0 | 0.0 | 0.00 | 0.00 | 0.00 | 67 | 1021.5 |
| 20260502214546 | 62 | 319 | 0.0 | 0.0 | 0.00 | 0.00 | 0.00 | 66 | 1021.5 |
| 20260502214033 | 62 | 319 | 0.0 | 0.0 | 0.00 | 0.00 | 0.00 | 64 | 1021.5 |
| 20260502213537 | 63 | 319 | 0.0 | 0.0 | 0.00 | 0.00 | 0.00 | 62 | 1021.4 |
| 20260502213037 | 63 | 319 | 0.0 | 0.0 | 0.00 | 0.00 | 0.00 | 62 | 1021.4 |
| 20260502212540 | 63 | 319 | 0.0 | 0.0 | 0.00 | 0.00 | 0.00 | 62 | 1021.4 |
| 20260502212038 | 63 | 319 | 0.0 | 0.0 | 0.00 | 0.00 | 0.00 | 63 | 1021.4 |
| 20260502211543 | 63 | 319 | 0.0 | 0.0 | 0.00 | 0.00 | 0.00 | 62 | 1021.5 |
| 20260502211036 | 63 | 319 | 0.0 | 4.0 | 0.00 | 0.00 | 0.00 | 61 | 1021.5 |
| 20260502210539 | 64 | 319 | 0.0 | 6.0 | 0.00 | 0.00 | 0.00 | 60 | 1021.6 |
| 20260502210030 | 64 | 319 | 3.0 | 6.0 | 0.00 | 0.00 | 0.00 | 59 | 1021.5 |
| 20260502205535 | 64 | 320 | 4.0 | 5.0 | 0.00 | 0.00 | 0.00 | 60 | 1021.6 |
| 20260502205107 | 64 | 320 | 3.0 | 5.0 | 0.00 | 0.00 | 0.00 | 61 | 1021.6 |
| 20260502204546 | 64 | 320 | 1.0 | 5.0 | 0.00 | 0.00 | 0.00 | 60 | 1021.6 |
| 20260502204034 | 64 | 319 | 3.0 | 6.0 | 0.00 | 0.00 | 0.00 | 60 | 1021.7 |
| 20260502203539 | 64 | 314 | 3.0 | 6.0 | 0.00 | 0.00 | 0.00 | 60 | 1021.6 |
| 20260502203058 | 64 | 315 | 4.0 | 6.0 | 0.00 | 0.00 | 0.00 | 60 | 1021.6 |
| 20260502202535 | 64 | 316 | 4.0 | 6.0 | 0.00 | 0.00 | 0.00 | 61 | 1021.6 |
| 20260502202044 | 64 | 314 | 4.0 | 8.0 | 0.00 | 0.00 | 0.00 | 60 | 1021.7 |
| 20260502201542 | 64 | 318 | 4.0 | 8.0 | 0.00 | 0.00 | 0.00 | 60 | 1021.7 |
| 20260502201034 | 64 | 324 | 5.0 | 9.0 | 0.00 | 0.00 | 0.00 | 60 | 1021.6 |
| 20260502200539 | 65 | 318 | 4.0 | 8.0 | 0.00 | 0.00 | 0.00 | 60 | 1021.6 |
| 20260502200033 | 65 | 333 | 0.0 | 5.0 | 0.00 | 0.00 | 0.00 | 59 | 1021.6 |
| 20260502195538 | 65 | 333 | 0.0 | 6.0 | 0.00 | 0.00 | 0.00 | 59 | 1021.5 |
| 20260502195117 | 65 | 334 | 2.0 | 10.0 | 0.00 | 0.00 | 0.00 | 59 | 1021.5 |
| 20260502194533 | 65 | 329 | 5.0 | 10.0 | 0.00 | 0.00 | 0.00 | 59 | 1021.5 |
| 20260502194042 | 65 | 324 | 5.0 | 9.0 | 0.00 | 0.00 | 0.00 | 60 | 1021.5 |
| 20260502193547 | 64 | 317 | 6.0 | 10.0 | 0.00 | 0.00 | 0.00 | 61 | 1021.5 |
| 20260502193056 | 65 | 317 | 6.0 | 10.0 | 0.00 | 0.00 | 0.00 | 60 | 1021.5 |
| 20260502192534 | 65 | 324 | 5.0 | 10.0 | 0.00 | 0.00 | 0.00 | 60 | 1021.4 |
| 20260502192114 | 65 | 311 | 6.0 | 10.0 | 0.00 | 0.00 | 0.00 | 60 | 1021.5 |
| 20260502191549 | 64 | 328 | 5.0 | 8.0 | 0.00 | 0.00 | 0.00 | 61 | 1021.4 |
| 20260502191039 | 64 | 318 | 5.0 | 8.0 | 0.00 | 0.00 | 0.00 | 61 | 1021.4 |
| 20260502190605 | 64 | 313 | 5.0 | 8.0 | 0.00 | 0.00 | 0.00 | 62 | 1021.4 |
| 20260502190042 | 65 | 316 | 4.0 | 8.0 | 0.00 | 0.00 | 0.00 | 61 | 1021.3 |
| 20260502185545 | 65 | 316 | 6.0 | 8.0 | 0.00 | 0.00 | 0.00 | 61 | 1021.2 |
| 20260502185039 | 65 | 315 | 3.0 | 6.0 | 0.00 | 0.00 | 0.00 | 61 | 1021.1 |
| 20260502184605 | 65 | 316 | 3.0 | 6.0 | 0.00 | 0.00 | 0.00 | 62 | 1021.1 |
| 20260502184034 | 65 | 313 | 0.0 | 0.0 | 0.00 | 0.00 | 0.00 | 62 | 1021.1 |
| 20260502183538 | 65 | 313 | 0.0 | 0.0 | 0.00 | 0.00 | 0.00 | 62 | 1021.1 |
| 20260502183057 | 65 | 312 | 0.0 | 0.0 | 0.00 | 0.00 | 0.00 | 60 | 1021.1 |
| 20260502182532 | 66 | 312 | 0.0 | 0.0 | 0.00 | 0.00 | 0.00 | 60 | 1021.1 |
| 20260502182040 | 66 | 311 | 0.0 | 0.0 | 0.00 | 0.00 | 0.00 | 60 | 1021.0 |
| 20260502181604 | 66 | 310 | 0.0 | 0.0 | 0.00 | 0.00 | 0.00 | 60 | 1021.1 |
| 20260502181035 | 65 | 300 | 0.0 | 0.0 | 0.00 | 0.00 | 0.00 | 60 | 1021.1 |
| 20260502180536 | 65 | 298 | 0.0 | 0.0 | 0.00 | 0.00 | 0.00 | 59 | 1021.1 |
| 20260502164036 | 72 | 151 | 0.0 | 0.0 | 0.00 | 0.00 | 0.00 | 43 | 1021.3 |
| 20260502163538 | 72 | 151 | 0.0 | 0.0 | 0.00 | 0.00 | 0.00 | 43 | 1021.3 |
| 20260502163056 | 72 | 151 | 0.0 | 0.0 | 0.00 | 0.00 | 0.00 | 43 | 1021.3 |
| 20260502162533 | 72 | 151 | 0.0 | 0.0 | 0.00 | 0.00 | 0.00 | 44 | 1021.4 |
| 20260502162040 | 72 | 151 | 0.0 | 0.0 | 0.00 | 0.00 | 0.00 | 43 | 1021.4 |
| 20260502161543 | 72 | 151 | 0.0 | 0.0 | 0.00 | 0.00 | 0.00 | 43 | 1021.4 |
| 20260502161034 | 71 | 151 | 0.0 | 5.0 | 0.00 | 0.00 | 0.00 | 45 | 1021.5 |
| 20260502160539 | 71 | 152 | 0.0 | 6.0 | 0.00 | 0.00 | 0.00 | 45 | 1021.6 |
| 20260502152101 | 71 | 89 | 0.0 | 7.0 | 0.00 | 0.00 | 0.00 | 45 | 1021.9 |
| 20260502151544 | 71 | 122 | 1.0 | 7.0 | 0.00 | 0.00 | 0.00 | 45 | 1022.0 |
| 20260502151119 | 71 | 142 | 1.0 | 7.0 | 0.00 | 0.00 | 0.00 | 45 | 1022.0 |
| 20260502150534 | 71 | 128 | 0.0 | 7.0 | 0.00 | 0.00 | 0.00 | 45 | 1022.0 |
| 20260502130531 | 70 | 148 | 1.0 | 8.0 | 0.00 | 0.00 | 0.00 | 50 | 1023.7 |
| 20260502123546 | 70 | 125 | 2.0 | 8.0 | 0.00 | 0.00 | 0.00 | 48 | 1024.2 |
| 20260502123039 | 70 | 129 | 2.0 | 8.0 | 0.00 | 0.00 | 0.00 | 51 | 1024.1 |
| 20260502122559 | 70 | 141 | 0.0 | 8.0 | 0.00 | 0.00 | 0.00 | 50 | 1024.2 |
| 20260502122046 | 70 | 141 | 0.0 | 8.0 | 0.00 | 0.00 | 0.00 | 48 | 1024.3 |
| 20260502121611 | 69 | 154 | 1.0 | 5.0 | 0.00 | 0.00 | 0.00 | 52 | 1024.3 |
| 20260502121040 | 69 | 76 | 0.0 | 11.0 | 0.00 | 0.00 | 0.00 | 50 | 1024.4 |
| 20260502120544 | 69 | 118 | 4.0 | 11.0 | 0.00 | 0.00 | 0.00 | 52 | 1024.5 |
| 20260502115535 | 69 | 131 | 2.0 | 8.0 | 0.00 | 0.00 | 0.00 | 53 | 1024.6 |
| 20260502115044 | 69 | 152 | 2.0 | 8.0 | 0.00 | 0.00 | 0.00 | 53 | 1024.7 |
| 20260502114604 | 69 | 106 | 0.0 | 7.0 | 0.00 | 0.00 | 0.00 | 53 | 1024.8 |
| 20260502114055 | 69 | 146 | 3.0 | 7.0 | 0.00 | 0.00 | 0.00 | 54 | 1024.9 |
| 20260502113558 | 68 | 147 | 0.0 | 9.0 | 0.00 | 0.00 | 0.00 | 53 | 1025.0 |
| 20260502113036 | 68 | 111 | 4.0 | 9.0 | 0.00 | 0.00 | 0.00 | 53 | 1025.1 |
| 20260502112540 | 68 | 82 | 4.0 | 8.0 | 0.00 | 0.00 | 0.00 | 54 | 1025.2 |
| 20260502112058 | 68 | 119 | 0.0 | 8.0 | 0.00 | 0.00 | 0.00 | 56 | 1025.2 |
| 20260502111534 | 68 | 115 | 4.0 | 8.0 | 0.00 | 0.00 | 0.00 | 54 | 1025.3 |
| 20260502111041 | 68 | 137 | 1.0 | 5.0 | 0.00 | 0.00 | 0.00 | 53 | 1025.4 |
| 20260502110538 | 68 | 176 | 1.0 | 7.0 | 0.00 | 0.00 | 0.00 | 55 | 1025.4 |
| 20260502110046 | 67 | 68 | 0.0 | 7.0 | 0.00 | 0.00 | 0.00 | 53 | 1025.5 |
| 20260502105550 | 68 | 116 | 2.0 | 7.0 | 0.00 | 0.00 | 0.00 | 53 | 1025.5 |
| 20260502105040 | 68 | 129 | 1.0 | 7.0 | 0.00 | 0.00 | 0.00 | 53 | 1025.7 |
| 20260502104542 | 68 | 119 | 0.0 | 5.0 | 0.00 | 0.00 | 0.00 | 54 | 1025.7 |
| 20260502104033 | 68 | 123 | 3.0 | 6.0 | 0.00 | 0.00 | 0.00 | 54 | 1025.8 |
| 20260502103535 | 67 | 172 | 0.0 | 9.0 | 0.00 | 0.00 | 0.00 | 56 | 1025.9 |
| 20260502103046 | 67 | 177 | 3.0 | 9.0 | 0.00 | 0.00 | 0.00 | 56 | 1025.9 |
| 20260502102550 | 67 | 126 | 1.0 | 7.0 | 0.00 | 0.00 | 0.00 | 56 | 1026.0 |
| 20260502102106 | 67 | 76 | 2.0 | 7.0 | 0.00 | 0.00 | 0.00 | 54 | 1026.1 |
| 20260502101545 | 67 | 75 | 1.0 | 7.0 | 0.00 | 0.00 | 0.00 | 56 | 1026.2 |
| 20260502101033 | 66 | 83 | 0.0 | 5.0 | 0.00 | 0.00 | 0.00 | 56 | 1026.3 |
| 20260502100538 | 66 | 129 | 1.0 | 9.0 | 0.00 | 0.00 | 0.00 | 55 | 1026.3 |
| 20260502091046 | 64 | 109 | 0.0 | 5.0 | 0.00 | 0.00 | 0.00 | 60 | 1026.9 |
| 20260502090550 | 64 | 129 | 1.0 | 5.0 | 0.00 | 0.00 | 0.00 | 58 | 1026.9 |
| 20260502071042 | 58 | 194 | 0.0 | 1.0 | 0.00 | 0.00 | 0.00 | 76 | 1027.3 |
| 20260502070545 | 58 | 134 | 0.0 | 0.0 | 0.00 | 0.00 | 0.00 | 79 | 1027.4 |
| 20260502070043 | 57 | 147 | 0.0 | 0.0 | 0.00 | 0.00 | 0.00 | 77 | 1027.4 |
| 20260502065545 | 57 | 147 | 0.0 | 0.0 | 0.00 | 0.00 | 0.00 | 77 | 1027.3 |
| 20260502065105 | 57 | 332 | 0.0 | 0.0 | 0.00 | 0.00 | 0.00 | 77 | 1027.4 |
| 20260502064548 | 57 | 332 | 0.0 | 0.0 | 0.00 | 0.00 | 0.00 | 77 | 1027.4 |
| 20260502064035 | 57 | 332 | 0.0 | 0.0 | 0.00 | 0.00 | 0.00 | 77 | 1027.3 |
| 20260502063540 | 57 | 332 | 0.0 | 0.0 | 0.00 | 0.00 | 0.00 | 77 | 1027.3 |
| 20260502063053 | 57 | 332 | 0.0 | 0.0 | 0.00 | 0.00 | 0.00 | 78 | 1027.2 |
| 20260502062549 | 57 | 332 | 0.0 | 0.0 | 0.00 | 0.00 | 0.00 | 77 | 1027.2 |
| 20260502062040 | 57 | 332 | 0.0 | 0.0 | 0.00 | 0.00 | 0.00 | 76 | 1027.2 |
| 20260502061543 | 56 | 332 | 0.0 | 0.0 | 0.00 | 0.00 | 0.00 | 76 | 1027.3 |
| 20260502061033 | 56 | 332 | 0.0 | 0.0 | 0.00 | 0.00 | 0.00 | 78 | 1027.3 |
| 20260502060535 | 55 | 332 | 0.0 | 0.0 | 0.00 | 0.00 | 0.00 | 79 | 1027.3 |
| 20260502060044 | 55 | 332 | 0.0 | 0.0 | 0.00 | 0.00 | 0.00 | 80 | 1027.3 |
| 20260502055548 | 54 | 332 | 0.0 | 0.0 | 0.00 | 0.00 | 0.00 | 81 | 1027.3 |
| 20260502055040 | 54 | 332 | 0.0 | 0.0 | 0.00 | 0.00 | 0.00 | 82 | 1027.3 |
| 20260502054539 | 53 | 332 | 0.0 | 0.0 | 0.00 | 0.00 | 0.00 | 81 | 1027.3 |
| 20260502054057 | 53 | 332 | 0.0 | 0.0 | 0.00 | 0.00 | 0.00 | 82 | 1027.3 |
| 20260502053537 | 52 | 332 | 0.0 | 0.0 | 0.00 | 0.00 | 0.00 | 82 | 1027.3 |
| 20260502053045 | 52 | 332 | 0.0 | 0.0 | 0.00 | 0.00 | 0.00 | 82 | 1027.3 |
| 20260502052550 | 51 | 332 | 0.0 | 0.0 | 0.00 | 0.00 | 0.00 | 82 | 1027.3 |
| 20260502052037 | 51 | 332 | 0.0 | 0.0 | 0.00 | 0.00 | 0.00 | 82 | 1027.3 |
| 20260502051542 | 51 | 332 | 0.0 | 0.0 | 0.00 | 0.00 | 0.00 | 82 | 1027.2 |
| 20260502051101 | 52 | 332 | 0.0 | 0.0 | 0.00 | 0.00 | 0.00 | 82 | 1027.1 |
| 20260502050547 | 52 | 332 | 0.0 | 0.0 | 0.00 | 0.00 | 0.00 | 82 | 1027.1 |
| 20260502045602 | 52 | 332 | 0.0 | 0.0 | 0.00 | 0.00 | 0.00 | 82 | 1027.1 |
| 20260502045032 | 52 | 332 | 0.0 | 0.0 | 0.00 | 0.00 | 0.00 | 82 | 1027.1 |
| 20260502044555 | 51 | 332 | 0.0 | 0.0 | 0.00 | 0.00 | 0.00 | 82 | 1027.0 |
| 20260502044038 | 51 | 332 | 0.0 | 0.0 | 0.00 | 0.00 | 0.00 | 82 | 1027.0 |
| 20260502043601 | 51 | 332 | 0.0 | 0.0 | 0.00 | 0.00 | 0.00 | 82 | 1027.0 |
| 20260502043031 | 51 | 332 | 0.0 | 0.0 | 0.00 | 0.00 | 0.00 | 82 | 1027.0 |
| 20260502042534 | 51 | 332 | 0.0 | 0.0 | 0.00 | 0.00 | 0.00 | 82 | 1027.0 |
| 20260502042038 | 51 | 332 | 0.0 | 0.0 | 0.00 | 0.00 | 0.00 | 82 | 1027.0 |
| 20260502041542 | 51 | 332 | 0.0 | 0.0 | 0.00 | 0.00 | 0.00 | 81 | 1027.0 |
| 20260502041031 | 51 | 332 | 0.0 | 0.0 | 0.00 | 0.00 | 0.00 | 80 | 1026.9 |
| 20260502040536 | 51 | 332 | 0.0 | 0.0 | 0.00 | 0.00 | 0.00 | 81 | 1026.9 |
| 20260502040055 | 51 | 332 | 0.0 | 0.0 | 0.00 | 0.00 | 0.00 | 81 | 1026.9 |
| 20260502035549 | 51 | 332 | 0.0 | 0.0 | 0.00 | 0.00 | 0.00 | 81 | 1026.8 |
| 20260502035041 | 51 | 332 | 0.0 | 0.0 | 0.00 | 0.00 | 0.00 | 81 | 1026.9 |
| 20260502034546 | 51 | 332 | 0.0 | 0.0 | 0.00 | 0.00 | 0.00 | 81 | 1026.9 |
| 20260502034038 | 51 | 332 | 0.0 | 0.0 | 0.00 | 0.00 | 0.00 | 81 | 1026.9 |
| 20260502033600 | 51 | 332 | 0.0 | 0.0 | 0.00 | 0.00 | 0.00 | 81 | 1026.9 |
| 20260502033047 | 51 | 332 | 0.0 | 0.0 | 0.00 | 0.00 | 0.00 | 81 | 1026.8 |
| 20260502032550 | 52 | 332 | 0.0 | 0.0 | 0.00 | 0.00 | 0.00 | 81 | 1026.8 |
| 20260502032042 | 52 | 332 | 0.0 | 0.0 | 0.00 | 0.00 | 0.00 | 80 | 1026.9 |
| 20260502031544 | 52 | 332 | 0.0 | 0.0 | 0.00 | 0.00 | 0.00 | 80 | 1026.9 |
| 20260502031036 | 52 | 332 | 0.0 | 0.0 | 0.00 | 0.00 | 0.00 | 80 | 1026.9 |
| 20260502030538 | 52 | 332 | 0.0 | 0.0 | 0.00 | 0.00 | 0.00 | 80 | 1026.8 |
| 20260502030049 | 52 | 332 | 0.0 | 0.0 | 0.00 | 0.00 | 0.00 | 80 | 1026.8 |
| 20260502025533 | 52 | 332 | 0.0 | 0.0 | 0.00 | 0.00 | 0.00 | 80 | 1026.7 |
| 20260502025036 | 52 | 332 | 0.0 | 0.0 | 0.00 | 0.00 | 0.00 | 80 | 1026.8 |
| 20260502024542 | 52 | 332 | 0.0 | 0.0 | 0.00 | 0.00 | 0.00 | 79 | 1026.8 |
| 20260502024033 | 52 | 332 | 0.0 | 0.0 | 0.00 | 0.00 | 0.00 | 80 | 1026.7 |
| 20260502023539 | 52 | 332 | 0.0 | 0.0 | 0.00 | 0.00 | 0.00 | 79 | 1026.7 |
| 20260502023059 | 52 | 332 | 0.0 | 0.0 | 0.00 | 0.00 | 0.00 | 78 | 1026.7 |
| 20260502022533 | 53 | 332 | 0.0 | 0.0 | 0.00 | 0.00 | 0.00 | 78 | 1026.7 |
| 20260502022042 | 53 | 332 | 0.0 | 0.0 | 0.00 | 0.00 | 0.00 | 77 | 1026.7 |
| 20260502021547 | 53 | 332 | 0.0 | 0.0 | 0.00 | 0.00 | 0.00 | 76 | 1026.7 |
| 20260502021058 | 53 | 332 | 0.0 | 0.0 | 0.00 | 0.00 | 0.00 | 76 | 1026.7 |
| 20260502020532 | 53 | 332 | 0.0 | 0.0 | 0.00 | 0.00 | 0.00 | 75 | 1026.6 |
| 20260502020105 | 54 | 332 | 0.0 | 0.0 | 0.00 | 0.00 | 0.00 | 75 | 1026.6 |
| 20260502015549 | 54 | 332 | 0.0 | 0.0 | 0.00 | 0.00 | 0.00 | 75 | 1026.6 |
| 20260502015039 | 54 | 332 | 0.0 | 0.0 | 0.00 | 0.00 | 0.00 | 74 | 1026.6 |
| 20260502014544 | 54 | 332 | 0.0 | 0.0 | 0.00 | 0.00 | 0.00 | 73 | 1026.6 |
| 20260502014035 | 54 | 332 | 0.0 | 0.0 | 0.00 | 0.00 | 0.00 | 73 | 1026.6 |
| 20260502013536 | 55 | 332 | 0.0 | 0.0 | 0.00 | 0.00 | 0.00 | 72 | 1026.6 |
| 20260502013050 | 55 | 332 | 0.0 | 0.0 | 0.00 | 0.00 | 0.00 | 72 | 1026.6 |
| 20260502012533 | 54 | 332 | 0.0 | 3.0 | 0.00 | 0.00 | 0.00 | 72 | 1026.6 |
| 20260502012039 | 54 | 332 | 1.0 | 3.0 | 0.00 | 0.00 | 0.00 | 73 | 1026.6 |
| 20260502011541 | 54 | 332 | 1.0 | 4.0 | 0.00 | 0.00 | 0.00 | 74 | 1026.6 |
| 20260502011053 | 54 | 332 | 2.0 | 4.0 | 0.00 | 0.00 | 0.00 | 75 | 1026.6 |
| 20260502010555 | 54 | 332 | 0.0 | 0.0 | 0.00 | 0.00 | 0.00 | 75 | 1026.6 |
| 20260502010110 | 54 | 332 | 0.0 | 0.0 | 0.00 | 0.00 | 0.00 | 74 | 1026.6 |
| 20260502005552 | 54 | 332 | 0.0 | 0.0 | 0.00 | 0.00 | 0.00 | 74 | 1026.6 |
| 20260502005037 | 54 | 332 | 0.0 | 0.0 | 0.00 | 0.00 | 0.00 | 73 | 1026.7 |
| 20260502004542 | 55 | 332 | 0.0 | 0.0 | 0.00 | 0.00 | 0.00 | 73 | 1026.7 |
| 20260502004055 | 55 | 332 | 0.0 | 0.0 | 0.00 | 0.00 | 0.00 | 72 | 1026.7 |
| 20260502003559 | 55 | 332 | 0.0 | 0.0 | 0.00 | 0.00 | 0.00 | 72 | 1026.7 |
| 20260502003031 | 55 | 332 | 0.0 | 0.0 | 0.00 | 0.00 | 0.00 | 72 | 1026.7 |
| 20260502002536 | 55 | 332 | 0.0 | 0.0 | 0.00 | 0.00 | 0.00 | 72 | 1026.7 |
| 20260502002048 | 55 | 332 | 0.0 | 0.0 | 0.00 | 0.00 | 0.00 | 73 | 1026.7 |
| 20260502001549 | 54 | 332 | 0.0 | 0.0 | 0.00 | 0.00 | 0.00 | 74 | 1026.7 |
| 20260502001035 | 54 | 332 | 0.0 | 0.0 | 0.00 | 0.00 | 0.00 | 75 | 1026.7 |
| 20260502000555 | 54 | 332 | 0.0 | 0.0 | 0.00 | 0.00 | 0.00 | 75 | 1026.7 |
| 20260502000052 | 54 | 332 | 0.0 | 0.0 | 0.00 | 0.00 | 0.00 | 75 | 1026.8 |
| 20260501235537 | 54 | 332 | 0.0 | 0.0 | 0.00 | 0.00 | 0.00 | 74 | 1026.8 |
| 20260501235045 | 55 | 332 | 0.0 | 0.0 | 0.00 | 0.00 | 0.00 | 74 | 1026.8 |
| 20260501234548 | 54 | 332 | 0.0 | 0.0 | 0.00 | 0.00 | 0.00 | 74 | 1026.8 |
| 20260501234055 | 54 | 332 | 0.0 | 0.0 | 0.00 | 0.00 | 0.00 | 74 | 1026.8 |
| 20260501233538 | 54 | 332 | 0.0 | 0.0 | 0.00 | 0.00 | 0.00 | 74 | 1026.8 |
| 20260501233058 | 54 | 332 | 0.0 | 0.0 | 0.00 | 0.00 | 0.00 | 74 | 1026.9 |
| 20260501232536 | 54 | 332 | 0.0 | 0.0 | 0.00 | 0.00 | 0.00 | 75 | 1026.8 |
| 20260501232107 | 54 | 332 | 0.0 | 0.0 | 0.00 | 0.00 | 0.00 | 75 | 1026.9 |
| 20260501231609 | 54 | 332 | 0.0 | 0.0 | 0.00 | 0.00 | 0.00 | 74 | 1026.9 |
| 20260501231038 | 55 | 332 | 0.0 | 0.0 | 0.00 | 0.00 | 0.00 | 74 | 1026.9 |
| 20260501230543 | 55 | 332 | 0.0 | 0.0 | 0.00 | 0.00 | 0.00 | 73 | 1026.8 |
| 20260501230041 | 55 | 332 | 0.0 | 0.0 | 0.00 | 0.00 | 0.00 | 72 | 1026.8 |
| 20260501225532 | 56 | 332 | 0.0 | 0.0 | 0.00 | 0.00 | 0.00 | 72 | 1026.8 |
| 20260501225043 | 56 | 332 | 0.0 | 0.0 | 0.00 | 0.00 | 0.00 | 71 | 1026.9 |
| 20260501224549 | 56 | 332 | 0.0 | 0.0 | 0.00 | 0.00 | 0.00 | 70 | 1026.8 |